sat.trackr.live / text

‹ back to catalog

STARLINK-5876

NORAD 56321 · 2023-058E

PAYLOAD ACTIVE UNKNOWN

§ Identity

Operator
Country
US
Launch date
2023-04-27
Launch site
AFWTR
Launch vehicle
Mass (kg)
RCS (m²)

Purposes: comms

External: N2YO · Heavens-Above · Gunter

§ Orbital elements

Epoch: 2026-05-25T00:15:25.890048Z

Period
95.64 min
Inclination
97.4479°
Eccentricity
0.0001453
Mean motion
15.05647453 rev/d
Perigee alt
548.5 km
Apogee alt
550.5 km
Semi-major
6,927.7 km
B*
-2.4380e-3
RAAN
146.1243°
Arg perigee
96.8370°
Mean anomaly
263.3022°
Rev number
16,933

§ Raw data

STARLINK-58761 56321U 23058E   26145.01071632 -.00035061  00000+0 -24380-2 0  99982 56321  97.4479 146.1243 0001453  96.8370 263.3022 15.05647453169336

JSON: /api/v1/satellites/56321 · /tle

For live sub-satellite position, see the globe view (requires WebGL).

§ Visibility from observer

Set your observer location to see the next 7 days of passes ≥ 10°. The values pass through the URL so the page stays shareable.

No JS? Fill the form by hand. The geolocation button needs JavaScript.